Location: Rayville (historical)
(39.9992°N, 99.6815°W)
Time: 08:15:08
(UTC+00:00)

STARLINK-1045 - Pass Details

Date: 18 February 2020
Orbit: 549 x 550 km, 53.0° (Epoch: 01 April)

Event Time Altitude Azimuth Distance (km) Brightness Sun altitude
Exits shadow 11:51:43 34° 218° (SW) 914 4.4 -19.1°
Drops below altitude 10° 11:55:11 10° 162° (SSE) 1,818 6.5 -18.5°
Sets 11:57:32 0° 153° (SSE) 2,707 7.5 -18.0°
